Regional Weather Roundup
Issued by NWS

Home | Current Version | Previous Version | Graphics & Text | Print | Product List | Glossary On
Versions: 1 2 3 4 5 6 7 8 9 10 11 12 13 14 15 16 17 18 19 20 21 22 23 24 25 26 27 28
000
ASUS45 KBOI 231710
RWRID

IDAHO REGIONAL WEATHER ROUNDUP
NATIONAL WEATHER SERVICE BOISE ID
1100 AM MDT TUE AUG 23 2016

NOTE: "FAIR" INDICATES FEW OR NO CLOUDS BELOW 12000 FEET
WITH NO SIGNIFICANT WEATHER AND/OR OBSTRUCTIONS TO VISIBILITY

IDZ012-014-231800-
SOUTHWEST IDAHO


CITY           SKY/WX    TMP DP  RH WIND       PRES   REMARKS
BOISE          SUNNY     66  32  28 NW9       30.13R
CALDWELL       SUNNY     68  36  30 W10       30.13S
MOUNTAIN HOME  SUNNY     71  29  21 NW15      30.11R
$$

IDZ016-017-231800-
SOUTHCENTRAL IDAHO


CITY           SKY/WX    TMP DP  RH WIND       PRES   REMARKS
BURLEY         SUNNY     66  32  28 W16G24    30.12S
JEROME         SUNNY     65  28  24 SW14      30.14R
TWIN FALLS     SUNNY     68  22  17 W17       30.15S
$$

IDZ019>023-231800-
SOUTHEAST IDAHO


CITY           SKY/WX    TMP DP  RH WIND       PRES   REMARKS
IDAHO FALLS    CLOUDY    67  29  24 S17       30.12S
POCATELLO      SUNNY     70  27  20 SW20G26   30.13R
REXBURG        MOSUNNY   64  32  30 SW13      30.12S
$$

IDZ006-010-011-018-031-032-231800-
CENTRAL IDAHO MOUNTAINS


CITY           SKY/WX    TMP DP  RH WIND       PRES   REMARKS
MCCALL         SUNNY     61  28  28 CALM      30.18S
HAILEY         MOSUNNY   66  21  18 CALM      30.15F
STANLEY          N/A     54  21  27 VRB5      30.22F
SALMON         SUNNY     63  28  27 CALM      30.15F
CHALLIS        SUNNY     61  21  21 NE5       30.16F
$$

IDZ002-004-006-007-026-231800-
NORTHERN IDAHO


CITY           SKY/WX    TMP DP  RH WIND       PRES   REMARKS
LEWISTON       SUNNY     67  37  33 N7        30.13S
LOWELL           N/A     60  40  47 VRB3      30.17F
COEUR D`ALENE  SUNNY     64  45  48 SW5       30.11S
MULLAN PASS    MOSUNNY   51  35  54 MISG      30.20R
$$




USA.gov is the U.S. government's official web portal to all federal, state and local government web resources and services.